Regional Weather Roundup
Issued by NWS

Home | Current Version | Previous Version | Graphics & Text | Print | Product List | Glossary On
Versions: 1 2 3 4 5 6 7 8 9 10 11 12 13 14 15 16 17 18 19 20 21 22 23 24 25 26 27 28 29 30 31 32 33 34 35 36 37 38 39 40 41 42 43 44 45 46 47 48 49 50
000
ASUS45 KTFX 251210
RWRMT
MONTANA REGIONAL WEATHER ROUNDUP
NATIONAL WEATHER SERVICE GREAT FALLS MT
600 AM MDT MON MAY 25 2015

NOTE: "FAIR" INDICATES FEW OR NO CLOUDS BELOW 12000 FEET WITH NO
SIGNIFICANT WEATHER AND/OR OBSTRUCTIONS TO VISIBILITY.

MTZ001>007-043-251300-
WEST OF THE DIVIDE

CITY           SKY/WX    TMP DP  RH WIND       PRES   REMARKS
KALISPELL      SUNNY     41  36  82 CALM      29.88S
MISSOULA       CLEAR     45  39  79 SE5       29.93R
BUTTE          CLEAR     35  33  92 SE6       29.98S WCI  30
MULLAN PASS    CLOUDY    46  37  71 S5        29.93F
DEER LODGE       N/A     36  36 100 CALM      30.00R
EUREKA           N/A     45  36  70 CALM      29.87S
HAMILTON         N/A     45  37  76 S6        29.92S
LIBBY            N/A     52  43  71 SE3       29.87S
RONAN            N/A     40  36  86 CALM      29.93S
THOMPSON FALLS   N/A     44  42  93 CALM      29.93S
$$

MTZ008-052>055-251300-
SOUTHWEST MONTANA

CITY           SKY/WX    TMP DP  RH WIND       PRES   REMARKS
BOZEMAN        CLEAR     39  37  92 S5        29.96S
DILLON         CLEAR     40  37  89 S6        29.97R
W YELLOWSTONE  CLOUDY    39  39 100 CALM      29.99S
THREE FORKS      N/A     42  23  47 CALM      29.96S VSB 0
TWIN BRIDGES     N/A     39  34  82 E1        29.97R
$$

MTZ009-010-012-014-046-048-049-054-251300-
EAST SLOPES AND CENTRAL MONTANA

CITY           SKY/WX    TMP DP  RH WIND       PRES   REMARKS
CUT BANK       CLEAR     36  35  96 W6        29.93S WCI  31
GREAT FALLS    CLEAR     44  40  85 CALM      29.93S
MALMSTROM AFB  PTCLDY    44  41  91 SW6       29.93S
HELENA         CLEAR     44  40  85 CALM      29.94F
CONRAD           N/A     35  35 100 E2        29.95S
$$

MTZ011-013-016-021-045-047-050-051-251300-
NORTH CENTRAL MONTANA

CITY           SKY/WX    TMP DP  RH WIND       PRES   REMARKS
HAVRE          PTCLDY    43  38  82 CALM      29.91S
LEWISTOWN      PTCLDY    45  42  89 SE3       29.94S
N BAR RANCH    CLOUDY    46  43  87 W6        29.96S
CHINOOK          N/A     41  39  93 CALM      29.92S
FORT BENTON      N/A     46  43  87 CALM      29.93S
$$

MTZ017>020-022>027-061-062-251300-
NORTHEAST MONTANA

CITY           SKY/WX    TMP DP  RH WIND       PRES   REMARKS
GLASGOW        CLEAR     51  44  77 CALM      29.89S
JORDAN           N/A     43  41  93 CALM      29.90S
SIDNEY         MOCLDY    46  45  93 CALM      29.89S
WOLF POINT     PTCLDY    43  40  89 NE3       29.90S
MALTA            N/A     42  37  82 CALM      29.88R
POPLAR           N/A     46  45  93 CALM      29.90S
SCOBEY           N/A     41  33  73 E1        29.89S
$$

MTZ028>42-056>058-251300-
SOUTHCENTRAL AND SOUTHEAST MONTANA

CITY           SKY/WX    TMP DP  RH WIND       PRES   REMARKS
BAKER          LGT RAIN  52  51  97 NW6       29.89R FOG
BILLINGS       MOCLDY    50  46  86 W5        29.92S
LIVINGSTON     CLEAR     37  35  92 SW3       29.96S
MILES CITY     CLOUDY    51  50  96 CALM      29.90R
BIG TIMBER       N/A     41  41 100 SW7       29.96S
EKALAKA          N/A     50  48  92 N3        29.88S
FORSYTH          N/A     54  54 100 CALM      29.90S
LAUREL           N/A     49  43  80 CALM      29.92S
ROUNDUP          N/A     48  44  86 CALM      29.84F
$$

REGIONAL REPORTS...DAKOTAS

CITY           SKY/WX    TMP DP  RH WIND       PRES   REMARKS
WILLISTON      CLOUDY    48  44  86 CALM      29.89R
MINOT          CLOUDY    54  48  80 W5        29.86R
DICKINSON      CLOUDY    54  50  86 NE5       29.86R
BEACH          CLOUDY    50  50 100 CALM      29.90R
CROSBY         FAIR      45  45 100 SW5       29.89F
WATFORD CITY   PTSUNNY   48  46  93 CALM      29.87S
BISMARCK       LGT RAIN  56  55  97 N6        29.85R FOG
GRAND FORKS    CLOUDY    56  53  90 SW3       29.79F
FARGO          LGT RAIN  58  56  93 N9        29.78S
BUFFALO SD       N/A     53  50  89 N10       29.78S
RAPID CITY     CLOUDY    51  50  96 NW7       29.83S
$$

REGIONAL REPORTS...WYOMING/IDAHO/WASHINGTON

CITY           SKY/WX    TMP DP  RH WIND       PRES   REMARKS
GILLETTE       CLOUDY    49  48  97 N9        29.88S
SHERIDAN       CLOUDY    48  47  96 CALM      29.92S
BUFFALO WY     CLOUDY    46  43  89 NW8       29.92S
CODY           CLOUDY    48  39  71 NW6       29.95S
YELLOWSTONE LA   N/A     29  27  92 CALM      30.04R
IDAHO FALLS    FOG       46  46 100 SW3       29.94S VSB 1/4
SALMON         CLEAR     39  37  93 CALM      29.94S
BOISE          CLEAR     54  46  74 SE7       29.86S
SPOKANE        CLOUDY    54  52  93 NW7       29.85S
$$

REGIONAL REPORTS...ALBERTA

CITY           SKY/WX    TMP DP  RH WIND       PRES   REMARKS
EDMONTON       CLEAR     46  41  81 S3        29.86S
CALGARY        PTCLDY    48  37  66 CALM      29.89S
LETHBRIDGE     PTCLDY    39  37  93 S7        29.90S
MEDICINE HAT   PTCLDY    43  39  87 S5        29.90S
$$

REGIONAL REPORTS...SASKATCHEWAN

CITY           SKY/WX    TMP DP  RH WIND       PRES   REMARKS
SWIFT CURRENT  MOCLDY    52  36  54 W3        29.90S
REGINA         PTCLDY    46  41  81 SE5       29.88S
SASKATOON      MOCLDY    50  43  76 VRB2      29.88R
$$


USA.gov is the U.S. government's official web portal to all federal, state and local government web resources and services.